This is the latest recevied weather packets stored in our database for station/object K7SPS-10. If no packets are shown the sender has not sent any weather packets the latest 10 day(s).
| Time | Temp. | Humidity | Pressure | Rain* | Wind** | Luminosity | Snow |
|---|---|---|---|---|---|---|---|
| 1777724538 | 5.56° C | 87% | 1017.6 hPa | 0 mm | - | 0 W/m² | - |
| 1777724237 | 6.11° C | 86% | 1017.5 hPa | 0 mm | - | 0 W/m² | - |
| 1777723934 | 6.11° C | 86% | 1017.3 hPa | 0 mm | - | 0 W/m² | - |
| 1777723630 | 6.11° C | 85% | 1017.3 hPa | 0 mm | - | 0 W/m² | - |
| 1777723327 | 6.11° C | 85% | 1017.5 hPa | 0 mm | - | 0 W/m² | - |
| 1777723026 | 6.11° C | 84% | 1017.3 hPa | 0 mm | - | 0 W/m² | - |
| 1777722721 | 6.11° C | 84% | 1017.1 hPa | 0 mm | - | 0 W/m² | - |
| 1777722417 | 6.11° C | 83% | 1017.5 hPa | 0 mm | - | 0 W/m² | - |
| 1777722115 | 6.67° C | 82% | 1017.5 hPa | 0 mm | - | 0 W/m² | - |
| 1777721812 | 6.67° C | 82% | 1017.4 hPa | 0 mm | - | 0 W/m² | - |
| 1777721510 | 6.67° C | 81% | 1017.4 hPa | 0 mm | - | 0 W/m² | - |
| 1777721208 | 7.22° C | 80% | 1017.5 hPa | 0 mm | - | 0 W/m² | - |
| 1777720905 | 7.22° C | 79% | 1017.3 hPa | 0 mm | - | 0 W/m² | - |
| 1777720602 | 7.22° C | 79% | 1017.6 hPa | 0 mm | - | 0 W/m² | - |
| 1777720300 | 6.67° C | 82% | 1017.3 hPa | 0 mm | - | 0 W/m² | - |
| 1777719998 | 6.11° C | 84% | 1017.1 hPa | 0 mm | - | 0 W/m² | - |
| 1777719695 | 6.67° C | 84% | 1017.3 hPa | 0 mm | - | 0 W/m² | - |
| 1777719392 | 6.67° C | 83% | 1017.5 hPa | 0 mm | - | 0 W/m² | - |
| 1777719089 | 6.67° C | 83% | 1017.6 hPa | 0 mm | - | 0 W/m² | - |
| 1777718786 | 6.11° C | 84% | 1017.6 hPa | 0 mm | - | 0 W/m² | - |
| 1777718483 | 6.67° C | 85% | 1017.4 hPa | 0 mm | - | 0 W/m² | - |
| 1777718181 | 6.11° C | 86% | 1017.5 hPa | 0 mm | - | 0 W/m² | - |
| 1777717879 | 6.11° C | 85% | 1017.5 hPa | 0 mm | - | 0 W/m² | - |
| 1777717576 | 6.67° C | 85% | 1017.3 hPa | 0 mm | - | 0 W/m² | - |
| 1777717272 | 6.11° C | 85% | 1017.1 hPa | 0 mm | - | 0 W/m² | - |
* Rain latest hour (hover to see other rain measurements)
** Current wind speed in m/s (hover to see current wind gust speed)